Regional Weather Roundup
Issued by NWS

Home | Current Version | Previous Version | Graphics & Text | Print | Product List | Glossary On
Versions: 1 2 3 4 5 6 7 8 9 10 11 12 13 14 15 16 17 18 19 20 21 22 23 24 25 26 27 28 29 30 31 32 33 34 35 36 37 38 39 40 41 42 43 44 45 46 47 48 49 50
000
ASUS45 KABQ 271801
RWRNM
NEW MEXICO REGIONAL WEATHER ROUNDUP
NATIONAL WEATHER SERVICE ALBUQUERQUE NM
1200 PM MDT WED JUL 27 2016

NOTE: "FAIR" MEANS FEW OR NO CLOUDS BELOW 12,000 FEET AGL WITH NO
       SIGNIFICANT WEATHER OR OBSTRUCTIONS TO VISION.

      THIS PRODUCT IS RELEASED AS TWO VERSIONS.  ONE VERSION NEAR
      THE TOP OF THE HOUR CONTAINING PRELIMINARY DATA FROM ALBUQUERQUE
      AND OTHER STATIONS.  A FINAL VERSION WITH ADDITIONAL DATA IS
      ISSUED ABOUT 10 MINUTES AFTER THE HOUR.

NMZ501-503-504-510>518-271900-
NORTHWEST PLATEAU/NORTHCENTRAL MOUNTAINS

CITY           SKY/WX    TMP DP  RH WIND       PRES   REMARKS
FARMINGTON     FAIR      85  48  27 S6        30.22F
6HR MIN TEMP:  59; 6HR MAX TEMP:  86;

LOS ALAMOS     FAIR      81  42  25 NE8G17    30.36F
SANTA FE       FAIR      85  45  24 VRB6      30.28F
6HR MIN TEMP:  58; 6HR MAX TEMP:  86;

TAOS           FAIR      81  41  24 N6        30.36
ANGEL FIRE     FAIR      74  38  27 CALM      30.44F

$$
NMZ402-403-502-505>509-271900-
WESTCENTRAL MOUNTAINS/SOUTHWEST MOUNTAINS

CITY           SKY/WX    TMP DP  RH WIND       PRES   REMARKS
GALLUP         FAIR      88  41  19 NE12G17   30.30F
6HR MIN TEMP:  56; 6HR MAX TEMP:  88;

GRANTS         FAIR      83  46  26 CALM      30.32F
SILVER CITY    FAIR      86  55  34 SW5       30.22F

$$
NMZ407-409-411-412-271900-
SOUTHERN DESERTS

CITY           SKY/WX    TMP DP  RH WIND       PRES   REMARKS
LORDSBURG      FAIR      86  57  37 NE7       30.14F
DEMING         FAIR      86  62  44 S7        30.14F
6HR MIN TEMP:  69; 6HR MAX TEMP:  86;

LAS CRUCES     FAIR      84  57  39 E6        30.18F
HOLLOMAN AFB   FAIR      85  60  41 NW10      30.13F
ALAMOGORDO     FAIR      82  61  47 NW3       30.16F
T OR C         FAIR      85  57  38 SE6       30.18F
6HR MIN TEMP:  70; 6HR MAX TEMP:  87;


$$
NMZ519>523-271900-
CENTRAL VALLEYS/CENTRAL HIGHLANDS

CITY           SKY/WX    TMP DP  RH WIND       PRES   REMARKS
ALBUQUERQUE    FAIR      84  56  38 NW3       30.23F
6HR MIN TEMP:  69; 6HR MAX TEMP:  84;

DOUBLE EAGLE     N/A     82  55  39 S6        30.28S
MORIARTY ARPT  FAIR      85  46  25 E8        30.30F
6HR MIN TEMP:  56; 6HR MAX TEMP:  85;

CLINES CORNERS FAIR      77  51  40 CALM      30.35F
6HR MIN TEMP:  59; 6HR MAX TEMP:  77;

BELEN          FAIR      82  54  39 N3        30.23F
6HR MIN TEMP:  65; 6HR MAX TEMP:  82;

SOCORRO        FAIR      83  54  35 CALM      30.20F
6HR MIN TEMP:  67; 6HR MAX TEMP:  84;


$$
NMZ524>526-539-540-271900-
SOUTHCENTRAL MOUNTAINS

CITY           SKY/WX    TMP DP  RH WIND       PRES   REMARKS
RUIDOSO          N/A     68  54  60 S7        30.37F

$$
NMZ527>531-271900-
NORTHEAST HIGHLANDS/NORTHEAST PLAINS

CITY           SKY/WX    TMP DP  RH WIND       PRES   REMARKS
LAS VEGAS      CLOUDY    81  45  28 SE10      30.32F
6HR MIN TEMP:  53; 6HR MAX TEMP:  84;

RATON          FAIR      83  45  26 S9        30.26F
CLAYTON        FAIR      87  61  41 E5        30.17F
6HR MIN TEMP:  64; 6HR MAX TEMP:  87;


$$
NMZ532>537-271900-
EASTCENTRAL PLAINS

CITY           SKY/WX    TMP DP  RH WIND       PRES   REMARKS
TUCUMCARI      FAIR      92  54  27 MISG      30.10F
6HR MIN TEMP:  68; 6HR MAX TEMP:  92;

CANNON AFB     FAIR      89  59  36 VRB6      30.13F
6HR MIN TEMP:  70; 6HR MAX TEMP:  90;

CLOVIS AIRPORT FAIR      90  59  35 SW7       30.13F

$$
NMZ028-029-538-271900-
SOUTHEAST PLAINS

CITY           SKY/WX    TMP DP  RH WIND       PRES   REMARKS
ROSWELL        FAIR      91  60  35 S6        30.10F
6HR MIN TEMP:  70; 6HR MAX TEMP:  91;

ARTESIA        FAIR      88  59  37 VRB5      30.11F
CARLSBAD       FAIR      89  61  38 VRB7      30.07F
6HR MIN TEMP:  71; 6HR MAX TEMP:  90;

HOBBS          MOSUNNY   88  57  35 E9        30.13F


$$



USA.gov is the U.S. government's official web portal to all federal, state and local government web resources and services.